Location: Penzberg
(47.7615°N, 11.3159°E)
Time: 08:40:20
(UTC+01:00)

ISS - Visible Passes

Search period start: 17 February 2019 00:00
Search period end: 27 February 2019 00:00
Orbit: 403 x 411 km, 51.6° (Epoch: 17 February)

Date Brightness Start Highest point End Pass type
(mag) Time Alt. Az. Time Alt. Az. Time Alt. Az.
23 Feb -1.5 06:33:32 10° SSW 06:36:16 25° SE 06:39:01 10° E visible
24 Feb -1.0 05:42:59 10° S 05:44:58 15° SE 05:46:59 10° E visible
25 Feb -3.0 06:26:26 10° SW 06:29:37 50° SSE 06:32:48 10° ENE visible
26 Feb -2.2 05:35:45 13° SSW 05:38:12 31° SE 05:41:08 10° E visible
